CDT,Max TemperatureF,Mean TemperatureF,Min TemperatureF,Max Dew PointF,MeanDew PointF,Min DewpointF,Max Humidity, Mean Humidity, Min Humidity, Max Sea Level PressureIn, Mean Sea Level PressureIn, Min Sea Level PressureIn, Max VisibilityMiles, Mean VisibilityMiles, Min VisibilityMiles, Max Wind SpeedMPH, Mean Wind SpeedMPH, Max Gust SpeedMPH,PrecipitationIn, CloudCover, Events, WindDirDegrees
2013-5-1,84,71,57,55,51,45,67,47,27,30.12,30.01,29.89,10,10,10,20,9,28,0.00,1,,194
2013-5-2,57,49,40,45,40,37,93,78,62,30.23,30.20,30.11,10,8,2,18,12,25,0.23,6,Rain,352
2013-5-3,53,46,38,52,41,35,96,91,85,30.16,29.99,29.85,10,5,2,21,10,25,1.81,8,Rain-Thunderstorm,19
2013-5-4,69,61,52,58,55,50,93,78,63,30.04,29.94,29.87,10,7,0,16,8,20,0.78,7,Fog-Rain,90
2013-5-5,75,60,45,56,50,43,96,67,38,30.04,30.00,29.94,10,8,1,18,5,21,0.00,3,,3
2013-5-6,76,63,49,53,48,42,89,61,33,30.05,30.01,29.97,10,10,10,14,4,18,0.00,4,,30
2013-5-7,79,64,49,53,47,38,93,59,24,30.04,30.00,29.96,10,10,10,9,1,20,0.00,2,,120
2013-5-8,81,65,48,58,50,45,96,64,32,30.02,29.98,29.94,10,10,10,15,2,20,0.01,2,,242
2013-5-9,71,64,57,62,59,57,100,85,70,29.95,29.85,29.79,10,8,2,16,6,20,0.47,7,Rain-Thunderstorm,171
2013-5-10,61,52,43,59,48,44,100,86,72,30.01,29.92,29.79,10,8,4,14,6,20,T,7,Rain,359
2013-5-11,58,50,42,49,36,22,100,65,29,30.13,30.00,29.92,10,8,1,33,14,45,0.01,1,,303
2013-5-12,58,48,37,34,28,23,79,53,27,30.20,30.15,30.11,10,10,10,22,11,30,0.00,0,,302
2013-5-13,70,51,32,42,35,30,89,58,26,30.19,30.10,29.93,10,10,10,18,5,25,0.00,1,,187
2013-5-14,90,74,57,61,52,38,67,50,32,29.90,29.74,29.62,10,10,9,23,11,32,0.00,0,,217
2013-5-15,82,70,57,53,50,46,78,54,30,29.85,29.80,29.67,10,10,7,23,6,35,0.00,0,,276
2013-5-16,83,69,54,57,51,45,83,55,26,29.94,29.88,29.83,10,10,10,13,4,18,0.00,1,,130
2013-5-17,80,69,58,62,58,55,87,68,48,29.98,29.93,29.88,10,10,4,16,7,21,0.00,2,,147
2013-5-18,82,71,59,65,61,57,100,75,49,30.00,29.95,29.88,10,6,1,16,7,20,0.00,2,,120
2013-5-19,87,75,63,70,63,55,87,70,53,29.89,29.77,29.61,10,7,2,38,12,51,0.28,4,Rain-Thunderstorm,151
2013-5-20,81,72,62,63,60,57,93,71,49,29.74,29.69,29.59,10,10,9,32,13,44,0.08,2,Rain-Thunderstorm,181
2013-5-21,78,69,59,61,58,55,90,70,50,29.68,29.66,29.60,10,10,10,21,11,28,0.00,2,,213
2013-5-22,69,63,57,57,54,51,93,74,55,29.79,29.70,29.63,10,10,7,18,9,24,0.01,7,Rain,252
2013-5-23,68,58,47,55,50,42,93,69,44,30.27,30.01,29.78,10,8,2,18,8,26,0.07,7,Rain,5
2013-5-24,68,54,39,44,38,34,93,63,32,30.45,30.35,30.28,10,10,8,15,7,22,0.00,0,,102
2013-5-25,57,53,48,49,46,42,93,77,61,30.41,30.30,30.23,10,7,1,20,9,33,1.06,8,Rain,99
2013-5-26,59,54,49,57,52,46,100,92,83,30.25,30.14,30.02,10,6,2,26,11,32,1.41,8,Rain-Thunderstorm,92
2013-5-27,72,65,57,65,61,55,100,89,78,30.02,29.90,29.78,9,6,2,20,9,24,0.33,8,Rain-Thunderstorm,100
2013-5-28,78,71,63,72,65,60,100,87,73,29.86,29.74,29.65,10,8,1,31,11,40,0.72,6,Rain-Thunderstorm,206
2013-5-29,84,74,63,70,64,57,93,76,58,29.89,29.83,29.77,10,10,7,29,10,39,0.08,2,Rain-Thunderstorm,180
2013-5-30,83,73,63,70,64,59,93,78,62,29.82,29.75,29.68,10,8,1,39,14,49,0.63,4,Rain-Thunderstorm,179
2013-5-31,75,68,61,67,62,55,100,81,61,29.81,29.75,29.67,10,10,8,30,11,39,0.03,4,Rain,181